• In Schweiz
  • Länderverzeichnis
  • Für 7 Tage
  • Wassertemperatur
  • Satellitenkarten
  • Wetterkarte
  • Widgets
  • user-avatar
    Anmelden

    Stündliche Wetter Korçe

    Heute, 19 Januar, Freitag

    Zeit Temperatur Niederschläge Wind Luftdruck Luftfeuchtigkeit
    00:00 -3°C° 0 mm 2 m/S 665 mmHg 58%
    01:00 -3°C° 0 mm 2 m/S 665 mmHg 61%
    02:00 -3°C° 0 mm 2 m/S 664 mmHg 63%
    03:00 -3°C° 0 mm 2 m/S 664 mmHg 65%
    04:00 -3°C° 0 mm 2 m/S 664 mmHg 66%
    05:00 -3°C° 0 mm 2 m/S 664 mmHg 67%
    06:00 -3°C° 0 mm 2 m/S 664 mmHg 68%
    07:00 -4°C° 0 mm 3 m/S 664 mmHg 70%
    08:00 -1°C° 0 mm 3 m/S 665 mmHg 70%
    09:00 +1°C° 0 mm 3 m/S 665 mmHg 69%
    10:00 +2°C° 0 mm 3 m/S 665 mmHg 69%
    11:00 +3°C° 0 mm 3 m/S 665 mmHg 68%
    12:00 +4°C° 0 mm 3 m/S 665 mmHg 67%
    13:00 +4°C° 0 mm 3 m/S 665 mmHg 72%
    14:00 +4°C° 0 mm 3 m/S 665 mmHg 76%
    15:00 +3°C° 0 mm 3 m/S 665 mmHg 80%
    16:00 +4°C° 0 mm 2 m/S 664 mmHg 84%
    17:00 +3°C° 0 mm 2 m/S 664 mmHg 87%
    18:00 +1°C° 0 mm 3 m/S 664 mmHg 89%
    19:00 0°C° 0 mm 3 m/S 664 mmHg 91%
    20:00 0°C° 0 mm 3 m/S 664 mmHg 92%
    21:00 0°C° 0 mm 3 m/S 664 mmHg 92%
    22:00 0°C° 0 mm 3 m/S 664 mmHg 92%
    23:00 +1°C° 0 mm 3 m/S 664 mmHg 93%

    Morgen, 20 Januar, Samstag

    Zeit Temperatur Niederschläge Wind Luftdruck Luftfeuchtigkeit
    00:00 +1°C° 0 mm 3 m/S 664 mmHg 93%
    01:00 +1°C° 0 mm 3 m/S 664 mmHg 93%
    02:00 +1°C° 0,1 mm 3 m/S 663 mmHg 93%
    03:00 +1°C° 0,1 mm 3 m/S 663 mmHg 93%
    04:00 +1°C° 0,1 mm 3 m/S 663 mmHg 94%
    05:00 +1°C° 0,1 mm 3 m/S 663 mmHg 94%
    06:00 +1°C° 0,1 mm 3 m/S 663 mmHg 94%
    07:00 +2°C° 0,1 mm 3 m/S 662 mmHg 94%
    08:00 +2°C° 0,1 mm 3 m/S 663 mmHg 92%
    09:00 +3°C° 0,1 mm 3 m/S 663 mmHg 91%
    10:00 +4°C° 0,1 mm 3 m/S 663 mmHg 89%
    11:00 +4°C° 0,4 mm 3 m/S 662 mmHg 89%
    12:00 +4°C° 0,4 mm 3 m/S 662 mmHg 89%
    13:00 +5°C° 0,4 mm 3 m/S 662 mmHg 88%
    14:00 +4°C° 0,8 mm 3 m/S 662 mmHg 89%
    15:00 +4°C° 0,8 mm 3 m/S 661 mmHg 90%
    16:00 +5°C° 0,8 mm 2 m/S 661 mmHg 91%
    17:00 +4°C° 0,3 mm 2 m/S 661 mmHg 92%
    18:00 +4°C° 0,3 mm 2 m/S 662 mmHg 93%
    19:00 +4°C° 0,3 mm 1 m/S 662 mmHg 94%
    20:00 +4°C° 0 mm 1 m/S 662 mmHg 94%
    21:00 +4°C° 0 mm 1 m/S 662 mmHg 94%
    22:00 +4°C° 0 mm 1 m/S 662 mmHg 95%
    23:00 +3°C° 0 mm 1 m/S 662 mmHg 95%

    übermorgen, 21 Januar, Sonntag

    Zeit Temperatur Niederschläge Wind Luftdruck Luftfeuchtigkeit
    00:00 +3°C° 0 mm 1 m/S 662 mmHg 95%
    01:00 +2°C° 0 mm 2 m/S 661 mmHg 95%
    02:00 +2°C° 0 mm 2 m/S 661 mmHg 94%
    03:00 +1°C° 0 mm 2 m/S 661 mmHg 94%
    04:00 +1°C° 0 mm 2 m/S 660 mmHg 94%
    05:00 +1°C° 0 mm 2 m/S 660 mmHg 93%
    06:00 +2°C° 0 mm 2 m/S 660 mmHg 93%
    07:00 +2°C° 0 mm 2 m/S 659 mmHg 93%
    08:00 +3°C° 0,1 mm 2 m/S 659 mmHg 89%
    09:00 +4°C° 0,1 mm 2 m/S 659 mmHg 86%
    10:00 +5°C° 0,1 mm 2 m/S 659 mmHg 83%
    11:00 +5°C° 0,5 mm 2 m/S 659 mmHg 82%
    12:00 +5°C° 0,5 mm 2 m/S 658 mmHg 82%
    13:00 +5°C° 0,5 mm 2 m/S 658 mmHg 82%
    14:00 +4°C° 1,2 mm 2 m/S 658 mmHg 86%
    15:00 +5°C° 1,2 mm 1 m/S 657 mmHg 90%
    16:00 +4°C° 1,2 mm 1 m/S 657 mmHg 93%
    17:00 +4°C° 0,4 mm 1 m/S 657 mmHg 94%
    18:00 +4°C° 0,4 mm 1 m/S 657 mmHg 94%
    19:00 +3°C° 0,4 mm 1 m/S 657 mmHg 94%
    20:00 +2°C° 0 mm 2 m/S 657 mmHg 94%
    21:00 +2°C° 0 mm 2 m/S 658 mmHg 95%
    22:00 +1°C° 0 mm 2 m/S 658 mmHg 95%
    23:00 +1°C° 0,1 mm 2 m/S 658 mmHg 94%

    22 Januar, Montag

    Zeit Temperatur Niederschläge Wind Luftdruck Luftfeuchtigkeit
    00:00 +1°C° 0,1 mm 2 m/S 658 mmHg 94%
    01:00 +1°C° 0,1 mm 2 m/S 658 mmHg 94%
    02:00 +1°C° 0 mm 2 m/S 659 mmHg 94%
    03:00 -1°C° 0 mm 2 m/S 659 mmHg 94%
    04:00 -1°C° 0 mm 2 m/S 659 mmHg 94%
    05:00 -2°C° 0 mm 2 m/S 659 mmHg 93%
    06:00 -2°C° 0 mm 2 m/S 660 mmHg 92%
    07:00 -2°C° 0 mm 2 m/S 660 mmHg 92%
    08:00 -2°C° 0 mm 2 m/S 661 mmHg 85%
    09:00 -1°C° 0 mm 3 m/S 661 mmHg 79%
    10:00 0°C° 0 mm 3 m/S 662 mmHg 73%
    11:00 0°C° 0 mm 3 m/S 662 mmHg 67%
    12:00 +1°C° 0 mm 3 m/S 662 mmHg 62%
    13:00 +2°C° 0 mm 3 m/S 663 mmHg 57%
    14:00 +1°C° 0 mm 3 m/S 663 mmHg 58%
    15:00 +1°C° 0 mm 3 m/S 663 mmHg 60%
    16:00 +1°C° 0 mm 2 m/S 663 mmHg 62%
    17:00 -1°C° 0 mm 2 m/S 664 mmHg 64%
    18:00 -2°C° 0 mm 2 m/S 664 mmHg 67%
    19:00 -3°C° 0 mm 2 m/S 664 mmHg 70%
    20:00 -3°C° 0 mm 2 m/S 664 mmHg 70%
    21:00 -3°C° 0 mm 2 m/S 665 mmHg 70%
    22:00 -3°C° 0 mm 2 m/S 665 mmHg 69%
    23:00 -1°C° 0 mm 1 m/S 665 mmHg 69%

    23 Januar, Dienstag

    Zeit Temperatur Niederschläge Wind Luftdruck Luftfeuchtigkeit
    00:00 -1°C° 0 mm 1 m/S 665 mmHg 68%
    01:00 -1°C° 0 mm 1 m/S 665 mmHg 68%
    02:00 -1°C° 0 mm 1 m/S 665 mmHg 66%
    03:00 -1°C° 0 mm 1 m/S 665 mmHg 65%
    04:00 -1°C° 0 mm 1 m/S 665 mmHg 64%
    05:00 -1°C° 0 mm 1 m/S 665 mmHg 62%
    06:00 -1°C° 0 mm 1 m/S 665 mmHg 60%
    07:00 -1°C° 0 mm 1 m/S 666 mmHg 58%
    08:00 +1°C° 0 mm 1 m/S 666 mmHg 53%
    09:00 +3°C° 0 mm 1 m/S 667 mmHg 48%
    10:00 +5°C° 0 mm 1 m/S 668 mmHg 42%
    11:00 +5°C° 0 mm 1 m/S 668 mmHg 43%
    12:00 +5°C° 0 mm 1 m/S 668 mmHg 44%
    13:00 +6°C° 0 mm 1 m/S 668 mmHg 45%
    14:00 +5°C° 0 mm 1 m/S 668 mmHg 51%
    15:00 +5°C° 0 mm 1 m/S 668 mmHg 57%
    16:00 +4°C° 0 mm 1 m/S 668 mmHg 62%
    17:00 +3°C° 0 mm 1 m/S 668 mmHg 65%
    18:00 +2°C° 0 mm 1 m/S 669 mmHg 67%
    19:00 +1°C° 0 mm 1 m/S 669 mmHg 69%
    20:00 +1°C° 0 mm 1 m/S 669 mmHg 70%
    21:00 0°C° 0 mm 1 m/S 670 mmHg 71%
    22:00 0°C° 0 mm 1 m/S 670 mmHg 71%
    23:00 -2°C° 0 mm 2 m/S 670 mmHg 71%

    24 Januar, Mittwoch

    Zeit Temperatur Niederschläge Wind Luftdruck Luftfeuchtigkeit
    00:00 -2°C° 0 mm 2 m/S 670 mmHg 72%
    01:00 -2°C° 0 mm 2 m/S 671 mmHg 72%
    02:00 -3°C° 0 mm 2 m/S 671 mmHg 73%
    03:00 -3°C° 0 mm 2 m/S 671 mmHg 73%
    04:00 -3°C° 0 mm 2 m/S 671 mmHg 74%
    05:00 -3°C° 0 mm 2 m/S 671 mmHg 74%
    06:00 -3°C° 0 mm 2 m/S 672 mmHg 75%
    07:00 -3°C° 0 mm 2 m/S 672 mmHg 76%
    08:00 -2°C° 0 mm 2 m/S 673 mmHg 71%
    09:00 +1°C° 0 mm 2 m/S 674 mmHg 66%
    10:00 +3°C° 0 mm 2 m/S 674 mmHg 61%
    11:00 +3°C° 0 mm 2 m/S 675 mmHg 58%
    12:00 +4°C° 0 mm 2 m/S 675 mmHg 55%
    13:00 +6°C° 0 mm 1 m/S 675 mmHg 52%
    14:00 +5°C° 0 mm 1 m/S 674 mmHg 55%
    15:00 +5°C° 0 mm 1 m/S 674 mmHg 59%
    16:00 +4°C° 0 mm 1 m/S 674 mmHg 62%
    17:00 +3°C° 0 mm 1 m/S 674 mmHg 65%
    18:00 +2°C° 0 mm 1 m/S 674 mmHg 68%
    19:00 +1°C° 0 mm 1 m/S 674 mmHg 71%
    20:00 0°C° 0 mm 1 m/S 674 mmHg 70%
    21:00 0°C° 0 mm 1 m/S 674 mmHg 70%
    22:00 0°C° 0 mm 1 m/S 674 mmHg 70%
    23:00 0°C° 0 mm 1 m/S 674 mmHg 69%
    Mehr zeigen